Ozark, AL

4:46 AM CDT on September 21, 2017 (GMT -0500)
Cairns Army Air Field

Weather History for KOZR - September, 2012

Change the Weather History Date:

Sunday, September 30, 2012

  Actual Average Record
Temperature  
Mean Temperature 74 °F -  
Max Temperature 80 °F 78 °F 89 °F (1997)
Min Temperature 69 °F 60 °F 50 °F (2001)
Cooling Degree Days 10    
Growing Degree Days 24 (Base 50)    
Moisture  
Dew Point 71 °F    
Average Humidity 94    
Maximum Humidity 100    
Minimum Humidity 78    
Precipitation  
Precipitation 0.61 in - - ()
Sea Level Pressure  
Sea Level Pressure 29.80 in    
Wind  
Wind Speed 3 mph (ESE)    
Max Wind Speed 24 mph    
Max Gust Speed 28 mph    
Visibility 8 miles    
Events Rain    
Averages and records for this station are not official NWS values.
T = Trace of Precipitation, MM = Missing Value Source: NWS Daily Summary

Daily Weather History Graph

Daily Weather History Graph

Search for Another Location

Airport or City:

Trip Planner

Search our weather history database for the weather conditions in past years. The results will help you decide how hot, cold, wet, or windy it might be!

Date:

Astronomy

Sep. 30, 2012 Rise Set
Actual Time 6:36 AM CDT 6:28 PM CDT
Civil Twilight 6:12 AM CDT 6:52 PM CDT
Nautical Twilight 5:43 AM CDT 7:20 PM CDT
Astronomical Twilight 5:15 AM CDT 7:48 PM CDT
Moon 6:39 PM CDT (9/30) 7:00 AM CDT (9/30)
Length of Visible Light 12h 40m
Length of Day
11h 52m
Full, 100% of the Moon is Illuminated
Sep 30
Full
Oct 8
Last Quarter
Oct 15
New
Oct 21
First Quarter
Oct 29
Full

Hourly Weather History & Observations

Time (CDT) Temp. Heat Index Dew Point Humidity Pressure Visibility Wind Dir Wind Speed Gust Speed Precip Events Conditions
12:55 AM 71.2 °F - 70.3 °F 97% 29.88 in 10.0 mi Calm Calm - 0.00 in   Light Drizzle
12:56 AM 71.6 °F - 69.8 °F 94% 29.88 in 10.0 mi Calm Calm - N/A   Clear
1:23 AM 69.8 °F - 69.8 °F 100% 29.88 in 2.5 mi SE 3.5 mph - N/A   Clear
1:26 AM 69.8 °F - 69.8 °F 100% 29.88 in 1.8 mi Calm Calm - N/A   Clear
1:31 AM 69.8 °F - 69.8 °F 100% 29.88 in 2.0 mi Calm Calm - N/A   Partly Cloudy
1:35 AM 69.8 °F - 69.8 °F 100% 29.88 in 3.0 mi East 3.5 mph - N/A   Scattered Clouds
1:55 AM 70.3 °F - 69.8 °F 98% 29.88 in 10.0 mi Calm Calm - N/A   Mostly Cloudy
2:20 AM 69.8 °F - 69.8 °F 100% 29.88 in 10.0 mi Calm Calm - N/A   Light Drizzle
2:55 AM 70.7 °F - 70.2 °F 98% 29.87 in 9.0 mi Calm Calm - 0.01 in   Partly Cloudy
3:48 AM 69.8 °F - 69.8 °F 100% 29.86 in 10.0 mi Calm Calm - N/A   Partly Cloudy
3:52 AM 69.8 °F - 69.8 °F 100% 29.86 in 10.0 mi Calm Calm - N/A   Light Drizzle
3:55 AM 70.5 °F - 70.0 °F 98% 29.86 in 10.0 mi Calm Calm - 0.00 in   Light Drizzle
4:40 AM 69.8 °F - 69.8 °F 100% 29.84 in 8.0 mi Calm Calm - N/A Rain Light Rain
4:54 AM 69.8 °F - 69.8 °F 100% 29.84 in 10.0 mi NE 4.6 mph - N/A   Mostly Cloudy
4:55 AM 70.7 °F - 70.2 °F 98% 29.84 in 10.0 mi NNE 4.6 mph - 0.01 in   Mostly Cloudy
5:32 AM 69.8 °F - 69.8 °F 100% 29.84 in 10.0 mi Calm Calm - N/A   Light Drizzle
5:42 AM 69.8 °F - 69.8 °F 100% 29.84 in 10.0 mi Calm Calm - N/A   Mostly Cloudy
5:55 AM 70.2 °F - 69.6 °F 98% 29.84 in 9.0 mi Calm Calm - 0.00 in   Mostly Cloudy
6:14 AM 69.8 °F - 69.8 °F 100% 29.84 in 7.0 mi Calm Calm - N/A   Scattered Clouds
6:23 AM 69.8 °F - 69.8 °F 100% 29.84 in 7.0 mi Calm Calm - N/A   Mostly Cloudy
6:26 AM 69.8 °F - 69.8 °F 100% 29.84 in 7.0 mi Calm Calm - N/A   Light Drizzle
6:47 AM 69.8 °F - 69.8 °F 100% 29.84 in 7.0 mi Calm Calm - N/A   Overcast
6:55 AM 70.2 °F - 69.8 °F 99% 29.84 in 8.0 mi Calm Calm - 0.00 in   Overcast
7:34 AM 69.8 °F - 69.8 °F 100% 29.85 in 5.0 mi NE 4.6 mph - N/A   Mostly Cloudy
7:55 AM 70.7 °F - 70.3 °F 99% 29.85 in 7.0 mi Calm Calm - N/A   Mostly Cloudy
8:55 AM 71.8 °F - 70.9 °F 97% 29.86 in 10.0 mi East 3.5 mph - N/A   Mostly Cloudy
9:34 AM 73.4 °F - 71.6 °F 94% 29.86 in 10.0 mi ESE 4.6 mph - N/A   Mostly Cloudy
9:36 AM 73.4 °F - 71.6 °F 94% 29.86 in 10.0 mi East 4.6 mph - N/A   Mostly Cloudy
9:50 AM 73.4 °F - 71.6 °F 94% 29.86 in 10.0 mi ESE 6.9 mph - N/A   Overcast
9:55 AM 74.1 °F - 70.7 °F 89% 29.86 in 10.0 mi East 6.9 mph - N/A   Overcast
10:02 AM 73.4 °F - 71.6 °F 94% 29.86 in 10.0 mi East 5.8 mph - N/A   Overcast
10:36 AM 75.2 °F - 71.6 °F 89% 29.85 in 10.0 mi ESE 6.9 mph - N/A   Overcast
10:38 AM 75.2 °F - 71.6 °F 89% 29.85 in 10.0 mi East 8.1 mph - N/A   Overcast
10:55 AM 76.8 °F - 72.0 °F 85% 29.85 in 10.0 mi East 5.8 mph - N/A   Overcast
10:57 AM 77.0 °F - 71.6 °F 83% 29.85 in 10.0 mi East 5.8 mph - N/A   Overcast
11:40 AM 78.8 °F - 71.6 °F 78% 29.84 in 10.0 mi SSE 6.9 mph - N/A   Overcast
11:46 AM 78.8 °F - 71.6 °F 78% 29.84 in 10.0 mi ESE 9.2 mph - N/A   Overcast
11:55 AM 78.8 °F - 72.0 °F 79% 29.84 in 10.0 mi ESE 8.1 mph - N/A   Overcast
11:59 AM 78.8 °F - 71.6 °F 78% 29.84 in 10.0 mi ESE 6.9 mph - N/A   Overcast
12:55 PM 80.2 °F 84.5 °F 72.7 °F 78% 29.81 in 10.0 mi Variable 5.8 mph - N/A   Overcast
1:07 PM 80.6 °F 85.4 °F 73.4 °F 79% 29.81 in 10.0 mi SE 6.9 mph - N/A   Overcast
1:38 PM 78.8 °F - 71.6 °F 78% 29.81 in 9.0 mi South 24.2 mph 27.6 mph N/A   Light Drizzle
1:41 PM 77.0 °F - 71.6 °F 83% 29.82 in 2.0 mi South 19.6 mph 27.6 mph N/A Rain Heavy Rain
1:42 PM 77.0 °F - 69.8 °F 78% 29.82 in 1.8 mi South 16.1 mph 27.6 mph N/A Rain Heavy Rain
1:44 PM 73.4 °F - 69.8 °F 88% 29.82 in 1.2 mi South 13.8 mph 27.6 mph N/A Rain Heavy Rain
1:46 PM 73.4 °F - 69.8 °F 88% 29.81 in 1.0 mi South 12.7 mph 27.6 mph N/A Rain Heavy Rain
1:51 PM 71.6 °F - 69.8 °F 94% 29.81 in 1.2 mi SSE 9.2 mph 18.4 mph N/A Rain Heavy Rain
1:55 PM 70.9 °F - 69.3 °F 95% 29.81 in 1.2 mi SSE 8.1 mph - 0.33 in Rain Heavy Rain
1:56 PM 71.6 °F - 69.8 °F 94% 29.80 in 1.5 mi SE 6.9 mph - N/A Rain Heavy Rain
2:00 PM 71.6 °F - 69.8 °F 94% 29.80 in 2.0 mi SE 4.6 mph - N/A Rain Light Rain
2:02 PM 71.6 °F - 69.8 °F 94% 29.80 in 3.0 mi SSE 4.6 mph - N/A Rain Light Rain
2:43 PM 71.6 °F - 69.8 °F 94% 29.77 in 10.0 mi East 3.5 mph - N/A   Mostly Cloudy
2:55 PM 71.4 °F - 70.2 °F 96% 29.77 in 10.0 mi Calm Calm - 0.06 in   Scattered Clouds
3:55 PM 73.2 °F - 70.9 °F 92% 29.76 in 10.0 mi East 3.5 mph - N/A   Mostly Cloudy
4:55 PM 73.4 °F - 72.1 °F 96% 29.75 in 10.0 mi ENE 3.5 mph - N/A   Overcast
5:04 PM 73.4 °F - 71.6 °F 94% 29.75 in 10.0 mi ENE 4.6 mph - N/A Rain Light Rain
5:55 PM 73.0 °F - 72.1 °F 97% 29.75 in 4.0 mi East 4.6 mph - 0.08 in Rain Light Rain
6:26 PM 73.4 °F - 71.6 °F 94% 29.74 in 5.0 mi SE 4.6 mph - N/A Rain Light Rain
6:28 PM 73.4 °F - 71.6 °F 94% 29.74 in 5.0 mi SE 3.5 mph - N/A Rain Light Rain
6:30 PM 73.4 °F - 71.6 °F 94% 29.74 in 5.0 mi Calm Calm - N/A Rain Light Rain
6:38 PM 73.4 °F - 71.6 °F 94% 29.74 in 10.0 mi SE 3.5 mph - N/A   Mostly Cloudy
6:42 PM 73.4 °F - 71.6 °F 94% 29.74 in 10.0 mi SE 3.5 mph - N/A   Mostly Cloudy
6:50 PM 73.4 °F - 71.6 °F 94% 29.74 in 10.0 mi ESE 4.6 mph - N/A   Light Drizzle
6:55 PM 73.2 °F - 72.3 °F 97% 29.74 in 10.0 mi ESE 4.6 mph - 0.06 in   Light Drizzle
7:01 PM 73.4 °F - 71.6 °F 94% 29.74 in 10.0 mi ESE 3.5 mph - N/A   Mostly Cloudy
7:12 PM 73.4 °F - 71.6 °F 94% 29.74 in 10.0 mi Calm Calm - N/A   Light Drizzle
7:55 PM 73.0 °F - 72.1 °F 97% 29.74 in 10.0 mi Calm Calm - 0.01 in Rain Light Rain
8:05 PM 73.4 °F - 71.6 °F 94% 29.74 in 10.0 mi East 3.5 mph - N/A   Mostly Cloudy
8:17 PM 73.4 °F - 71.6 °F 94% 29.75 in 10.0 mi NE 4.6 mph - N/A   Overcast
8:30 PM 73.4 °F - 71.6 °F 94% 29.75 in 10.0 mi East 3.5 mph - N/A   Overcast
8:34 PM 73.4 °F - 71.6 °F 94% 29.75 in 10.0 mi East 3.5 mph - N/A   Mostly Cloudy
8:37 PM 73.4 °F - 71.6 °F 94% 29.75 in 10.0 mi East 3.5 mph - N/A   Mostly Cloudy
8:45 PM 73.4 °F - 71.6 °F 94% 29.75 in 9.0 mi East 3.5 mph - N/A Rain Light Rain
8:55 PM 72.9 °F - 72.3 °F 98% 29.76 in 5.0 mi Calm Calm - 0.03 in Rain Light Rain
9:05 PM 73.4 °F - 71.6 °F 94% 29.76 in 5.0 mi Calm Calm - N/A Rain Light Rain
9:14 PM 73.4 °F - 71.6 °F 94% 29.76 in 7.0 mi Calm Calm - N/A Rain Light Rain
9:19 PM 73.4 °F - 71.6 °F 94% 29.76 in 8.0 mi Calm Calm - N/A Rain Light Rain
9:22 PM 73.4 °F - 71.6 °F 94% 29.76 in 9.0 mi Calm Calm - N/A Rain Light Rain
9:25 PM 73.4 °F - 73.4 °F 100% 29.75 in 9.0 mi East 4.6 mph - N/A Rain Light Rain
9:27 PM 73.4 °F - 73.4 °F 100% 29.76 in 8.0 mi Calm Calm - N/A Rain Light Rain
9:34 PM 73.4 °F - 71.6 °F 94% 29.75 in 9.0 mi Calm Calm - N/A   Light Drizzle
9:35 PM 73.4 °F - 71.6 °F 94% 29.75 in 9.0 mi Calm Calm - N/A   Light Drizzle
9:41 PM 73.4 °F - 71.6 °F 94% 29.75 in 10.0 mi East 3.5 mph - N/A   Mostly Cloudy
9:47 PM 73.4 °F - 71.6 °F 94% 29.75 in 10.0 mi SE 4.6 mph - N/A   Overcast
9:55 PM 73.8 °F - 71.6 °F 93% 29.75 in 10.0 mi SE 4.6 mph - 0.02 in   Overcast
10:00 PM 73.4 °F - 71.6 °F 94% 29.75 in 10.0 mi ESE 3.5 mph - N/A   Mostly Cloudy
10:03 PM 73.4 °F - 71.6 °F 94% 29.75 in 10.0 mi East 3.5 mph - N/A   Mostly Cloudy
10:13 PM 73.4 °F - 71.6 °F 94% 29.75 in 10.0 mi East 3.5 mph - N/A   Mostly Cloudy
10:55 PM 73.2 °F - 72.3 °F 97% 29.73 in 10.0 mi ESE 4.6 mph - N/A   Overcast
11:21 PM 73.4 °F - 73.4 °F 100% 29.73 in 10.0 mi ESE 5.8 mph - N/A   Light Drizzle
11:39 PM 73.4 °F - 73.4 °F 100% 29.71 in 10.0 mi ESE 6.9 mph - N/A   Partly Cloudy
11:55 PM 73.6 °F - 72.7 °F 97% 29.71 in 10.0 mi SE 6.9 mph - 0.00 in Rain Light Rain